When you browse on this site, cookies collect data to enhance your experience and personalize the content and advertising you see.
Visit our Privacy Policy to learn more. By continuing to use the site, you agree to this use of cookies and data.
  • In Netherlands
  • List of Countries
  • For 7 days
  • Water Temperature
  • Satellite Maps
  • Weather Map
  • Weather Widgets
  • user-avatar
    Login

    Hourly Weather Canberra

    Today, 15 December, Saturday

    Time Temperature Precipitation Wind Pressure Humidity
    00:00 +18°C° 0.2 mm 1 mps 702 mmHg 97%
    01:00 +16°C° 0.2 mm 1 mps 702 mmHg 97%
    02:00 +16°C° 0.1 mm 1 mps 702 mmHg 97%
    03:00 +16°C° 0.1 mm 1 mps 702 mmHg 97%
    04:00 +16°C° 0 mm 1 mps 701 mmHg 98%
    05:00 +18°C° 0 mm 1 mps 702 mmHg 95%
    06:00 +19°C° 0 mm 1 mps 702 mmHg 92%
    07:00 +20°C° 0 mm 1 mps 703 mmHg 89%
    08:00 +21°C° 0 mm 2 mps 703 mmHg 75%
    09:00 +24°C° 0 mm 2 mps 703 mmHg 61%
    10:00 +26°C° 0 mm 3 mps 704 mmHg 48%
    11:00 +26°C° 0.1 mm 3 mps 704 mmHg 46%
    12:00 +27°C° 0.1 mm 3 mps 703 mmHg 44%
    13:00 +27°C° 0.1 mm 3 mps 703 mmHg 41%
    14:00 +27°C° 0.4 mm 3 mps 703 mmHg 45%
    15:00 +26°C° 0.4 mm 3 mps 702 mmHg 49%
    16:00 +26°C° 0.4 mm 3 mps 702 mmHg 52%
    17:00 +24°C° 0.7 mm 2 mps 702 mmHg 58%
    18:00 +23°C° 0.7 mm 2 mps 702 mmHg 64%
    19:00 +21°C° 0.7 mm 2 mps 702 mmHg 70%
    20:00 +20°C° 0.2 mm 2 mps 702 mmHg 74%
    21:00 +19°C° 0.2 mm 2 mps 703 mmHg 79%
    22:00 +18°C° 0.2 mm 2 mps 703 mmHg 83%
    23:00 +18°C° 0 mm 1 mps 703 mmHg 84%

    Tomorrow, 16 December, Sunday

    Time Temperature Precipitation Wind Pressure Humidity
    00:00 +18°C° 0 mm 1 mps 702 mmHg 86%
    01:00 +16°C° 0 mm 1 mps 702 mmHg 88%
    02:00 +16°C° 0 mm 1 mps 702 mmHg 87%
    03:00 +16°C° 0 mm 1 mps 702 mmHg 87%
    04:00 +15°C° 0 mm 1 mps 702 mmHg 87%
    05:00 +18°C° 0 mm 1 mps 703 mmHg 80%
    06:00 +19°C° 0 mm 1 mps 703 mmHg 73%
    07:00 +19°C° 0 mm 0 mps 704 mmHg 65%
    08:00 +23°C° 0 mm 1 mps 704 mmHg 57%
    09:00 +24°C° 0 mm 2 mps 704 mmHg 48%
    10:00 +26°C° 0 mm 3 mps 704 mmHg 39%
    11:00 +26°C° 0.1 mm 4 mps 704 mmHg 40%
    12:00 +26°C° 0.1 mm 4 mps 704 mmHg 42%
    13:00 +26°C° 0.1 mm 5 mps 704 mmHg 43%
    14:00 +23°C° 0.2 mm 4 mps 703 mmHg 49%
    15:00 +22°C° 0.2 mm 3 mps 703 mmHg 55%
    16:00 +21°C° 0.2 mm 3 mps 702 mmHg 61%
    17:00 +20°C° 0 mm 2 mps 703 mmHg 61%
    18:00 +20°C° 0 mm 2 mps 703 mmHg 61%
    19:00 +19°C° 0 mm 2 mps 703 mmHg 61%
    20:00 +18°C° 0 mm 2 mps 703 mmHg 63%
    21:00 +18°C° 0 mm 1 mps 704 mmHg 65%
    22:00 +16°C° 0 mm 1 mps 704 mmHg 67%
    23:00 +15°C° 0 mm 1 mps 704 mmHg 68%

    Day after tomorrow, 17 December, Monday

    Time Temperature Precipitation Wind Pressure Humidity
    00:00 +15°C° 0 mm 1 mps 704 mmHg 70%
    01:00 +14°C° 0 mm 1 mps 704 mmHg 71%
    02:00 +14°C° 0 mm 1 mps 704 mmHg 71%
    03:00 +14°C° 0 mm 1 mps 704 mmHg 72%
    04:00 +14°C° 0 mm 1 mps 703 mmHg 72%
    05:00 +16°C° 0 mm 1 mps 704 mmHg 66%
    06:00 +19°C° 0 mm 1 mps 705 mmHg 60%
    07:00 +21°C° 0 mm 1 mps 705 mmHg 53%
    08:00 +23°C° 0 mm 2 mps 706 mmHg 47%
    09:00 +25°C° 0 mm 2 mps 706 mmHg 42%
    10:00 +27°C° 0 mm 3 mps 706 mmHg 36%
    11:00 +28°C° 0 mm 3 mps 706 mmHg 34%
    12:00 +29°C° 0 mm 3 mps 706 mmHg 32%
    13:00 +29°C° 0 mm 4 mps 706 mmHg 30%
    14:00 +29°C° 0 mm 3 mps 706 mmHg 30%
    15:00 +30°C° 0 mm 3 mps 706 mmHg 30%
    16:00 +30°C° 0 mm 3 mps 706 mmHg 30%
    17:00 +27°C° 0 mm 3 mps 706 mmHg 38%
    18:00 +25°C° 0 mm 2 mps 706 mmHg 47%
    19:00 +23°C° 0 mm 1 mps 706 mmHg 55%
    20:00 +21°C° 0 mm 1 mps 707 mmHg 63%
    21:00 +20°C° 0 mm 1 mps 707 mmHg 72%
    22:00 +18°C° 0 mm 1 mps 707 mmHg 80%
    23:00 +16°C° 0 mm 1 mps 707 mmHg 84%

    18 December, Tuesday

    Time Temperature Precipitation Wind Pressure Humidity
    00:00 +16°C° 0 mm 1 mps 707 mmHg 88%
    01:00 +15°C° 0 mm 1 mps 707 mmHg 92%
    02:00 +15°C° 0 mm 1 mps 707 mmHg 91%
    03:00 +15°C° 0 mm 1 mps 707 mmHg 91%
    04:00 +15°C° 0 mm 1 mps 707 mmHg 91%
    05:00 +18°C° 0 mm 1 mps 707 mmHg 84%
    06:00 +19°C° 0 mm 1 mps 708 mmHg 78%
    07:00 +21°C° 0 mm 1 mps 708 mmHg 71%
    08:00 +24°C° 0 mm 1 mps 709 mmHg 61%
    09:00 +26°C° 0 mm 1 mps 709 mmHg 52%
    10:00 +29°C° 0 mm 1 mps 709 mmHg 42%
    11:00 +30°C° 0 mm 1 mps 709 mmHg 38%
    12:00 +31°C° 0 mm 2 mps 709 mmHg 34%
    13:00 +34°C° 0 mm 2 mps 709 mmHg 30%
    14:00 +32°C° 0 mm 2 mps 708 mmHg 32%
    15:00 +32°C° 0 mm 2 mps 708 mmHg 34%
    16:00 +31°C° 0 mm 3 mps 708 mmHg 36%
    17:00 +28°C° 0 mm 3 mps 708 mmHg 49%
    18:00 +25°C° 0 mm 3 mps 708 mmHg 63%
    19:00 +21°C° 0 mm 4 mps 708 mmHg 76%
    20:00 +20°C° 0 mm 3 mps 709 mmHg 80%
    21:00 +19°C° 0 mm 3 mps 709 mmHg 84%
    22:00 +18°C° 0 mm 3 mps 709 mmHg 88%
    23:00 +18°C° 0 mm 3 mps 709 mmHg 88%

    19 December, Wednesday

    Time Temperature Precipitation Wind Pressure Humidity
    00:00 +17°C° 0 mm 3 mps 709 mmHg 88%
    01:00 +17°C° 0 mm 3 mps 708 mmHg 89%
    02:00 +17°C° 0 mm 2 mps 708 mmHg 90%
    03:00 +17°C° 0 mm 2 mps 708 mmHg 90%
    04:00 +17°C° 0 mm 2 mps 708 mmHg 91%
    05:00 +17°C° 0 mm 2 mps 708 mmHg 88%
    06:00 +18°C° 0 mm 2 mps 708 mmHg 84%
    07:00 +19°C° 0 mm 2 mps 708 mmHg 80%
    08:00 +21°C° 0 mm 2 mps 708 mmHg 72%
    09:00 +25°C° 0 mm 2 mps 708 mmHg 64%
    10:00 +27°C° 0 mm 2 mps 708 mmHg 55%
    11:00 +29°C° 0 mm 3 mps 708 mmHg 50%
    12:00 +31°C° 0 mm 3 mps 707 mmHg 46%
    13:00 +34°C° 0 mm 4 mps 707 mmHg 41%
    14:00 +35°C° 0 mm 3 mps 706 mmHg 38%
    15:00 +35°C° 0 mm 3 mps 706 mmHg 36%
    16:00 +36°C° 0 mm 3 mps 705 mmHg 34%
    17:00 +33°C° 0.1 mm 3 mps 705 mmHg 45%
    18:00 +29°C° 0.1 mm 3 mps 704 mmHg 57%
    19:00 +26°C° 0.1 mm 3 mps 704 mmHg 69%
    20:00 +25°C° 0 mm 3 mps 703 mmHg 76%
    21:00 +23°C° 0 mm 2 mps 703 mmHg 83%
    22:00 +22°C° 0 mm 1 mps 703 mmHg 90%
    23:00 +22°C° 0 mm 1 mps 702 mmHg 91%

    20 December, Thursday

    Time Temperature Precipitation Wind Pressure Humidity
    00:00 +22°C° 0 mm 1 mps 702 mmHg 91%
    01:00 +21°C° 0 mm 1 mps 701 mmHg 91%
    02:00 +21°C° 0 mm 1 mps 701 mmHg 87%
    03:00 +21°C° 0 mm 1 mps 701 mmHg 84%
    04:00 +20°C° 0 mm 2 mps 700 mmHg 80%
    05:00 +22°C° 0 mm 3 mps 701 mmHg 69%
    06:00 +23°C° 0 mm 4 mps 701 mmHg 58%
    07:00 +26°C° 0 mm 5 mps 702 mmHg 47%
    08:00 +27°C° 0 mm 5 mps 702 mmHg 42%
    09:00 +28°C° 0 mm 6 mps 702 mmHg 36%
    10:00 +30°C° 0 mm 6 mps 703 mmHg 31%
    11:00 +30°C° 0 mm 6 mps 702 mmHg 29%
    12:00 +32°C° 0 mm 7 mps 702 mmHg 28%
    13:00 +32°C° 0 mm 7 mps 702 mmHg 26%
    14:00 +32°C° 0 mm 6 mps 702 mmHg 27%
    15:00 +30°C° 0 mm 6 mps 702 mmHg 28%
    16:00 +29°C° 0 mm 6 mps 702 mmHg 28%
    17:00 +27°C° 0 mm 5 mps 702 mmHg 34%
    18:00 +25°C° 0 mm 4 mps 702 mmHg 40%
    19:00 +22°C° 0 mm 3 mps 703 mmHg 46%
    20:00 +20°C° 0 mm 3 mps 703 mmHg 51%
    21:00 +19°C° 0 mm 3 mps 703 mmHg 55%
    22:00 +17°C° 0 mm 2 mps 703 mmHg 60%
    23:00 +16°C° 0 mm 2 mps 703 mmHg 64%
    Show more